This demonstration page uses our WeatherBlox Daily Observations layout. Learn more.

Left ArrowRight Arrow

Hourly Observations for June 2, 2020

Temp ( °F °C ) Dew Point ( °F °C ) Humidity (%) Winds ( mph kmh ) Pressure ( in mb ) Visibility ( mi km ) Precip ( " mm )
12:53 am 00:53 Clear 71 21.7 61 16.1 71 71 ESE 14 22 29.95 1014 10 16 0.00 0.00
1:53 am 01:53 Clear 70 21.1 62 16.7 76 76 SE 14 22 29.94 1014 10 16 0.00 0.00
2:53 am 02:53 Clear 68 20 62 16.7 81 81 ESE 9 15 29.94 1014 10 16 0.00 0.00
3:53 am 03:53 Clear 67 19.4 62 16.7 84 84 ESE 6 9 29.93 1014 10 16 0.00 0.00
4:53 am 04:53 Mostly Clear 67 19.4 63 17.2 87 87 ESE 10 17 29.93 1014 10 16 0.00 0.00
5:53 am 05:53 Clear 67 19.4 62 16.7 84 84 ESE 9 15 29.93 1013 10 16 0.00 0.00
6:53 am 06:53 Sunny 66 18.9 62 16.7 87 87 ESE 9 15 29.93 1014 10 16 0.00 0.00
7:53 am 07:53 Sunny 68 20 63 17.2 84 84 ESE 10 17 29.96 1014 10 16 0.00 0.00
8:53 am 08:53 Sunny 72 22.2 63 17.2 73 73 SSE 16 26 29.96 1015 10 16 0.00 0.00
9:53 am 09:53 Sunny 76 24.4 62 16.7 62 62 SE 10 17 29.96 1015 10 16 0.00 0.00
10:53 am 10:53 undefined 79 26.1 62 16.7 56 56 S 12 19 29.95 1014 10 16 0.00 0.00
11:53 am 11:53 Sunny 83 28.3 61 16.1 48 48 SSE 8 13 29.94 1014 10 16 0.00 0.00
12:53 pm 12:53 Sunny 86 30 60 15.6 42 42 SE 8 13 29.92 1013 10 16 0.00 0.00
1:53 pm 13:53 Sunny 88 31.1 58 14.4 36 36 ESE 9 15 29.89 1012 10 16 0.00 0.00
2:53 pm 14:53 Sunny 91 32.8 56 13.3 31 31 S 10 17 29.86 1011 10 16 0.00 0.00
3:53 pm 15:53 Mostly Sunny 92 33.3 55 12.8 29 29 E 8 13 29.84 1011 10 16 0.00 0.00
4:53 pm 16:53 Sunny 93 33.9 55 12.8 28 28 S 12 19 29.82 1010 10 16 0.00 0.00
5:53 pm 17:53 Sunny 93 33.9 55 12.8 28 28 VRB 6 9 29.80 1009 10 16 0.00 0.00
6:33 pm 18:33 Mostly Sunny 92 33.3 54 12.2 28 28 ESE 10 17 29.69 1006 10 16 0.00 0.00
6:53 pm 18:53 Mostly Sunny 92 33.3 54 12.2 28 28 ESE 12 19 29.79 1009 10 16 0.00 0.00
7:53 pm 19:53 Sunny 91 32.8 54 12.2 28 28 ESE 10 17 29.80 1009 10 16 0.00 0.00
8:53 pm 20:53 Sunny 88 31.1 55 12.8 33 33 ESE 14 22 29.81 1010 10 16 0.00 0.00
9:53 pm 21:53 Clear 85 29.4 56 13.3 37 37 ESE 12 19 29.83 1010 10 16 0.00 0.00
10:53 pm 22:53 Clear 83 28.3 57 13.9 41 41 SE 13 20 29.86 1011 10 16 0.00 0.00
11:53 pm 23:53 Clear 80 26.7 60 15.6 51 51 SE 15 24 29.88 1012 10 16 0.00 0.00

Powered by AerisWeather